Location: Nairn
(57.5833°N, 3.8667°W)
Time: 20:11:04
(UTC+00:00)

S-56A Canister/Altair - Pass Details

Date: 05 October 2022
Orbit: 638 x 2494 km, 38.9° (Epoch: 05 December)

Event Time Altitude Azimuth Distance (km) Brightness Sun altitude
Exits shadow 04:30:33 16° 221° (SW) 3,047 10.1 -16.3°
Maximum altitude 04:32:52 17° 202° (SSW) 2,742 10.0 -16.0°
Drops below altitude 10° 04:37:17 10° 164° (SSE) 2,897 10.5 -15.5°
Sets 04:40:32 0° 144° (SE) 3,577 11.2 -15.1°
